Location: Antioch Church
(34.9543°N, 88.5145°W)
Time: 14:35:10
(UTC+00:00)

S3M - Pass Details

Date: 11 December 2019
Orbit: 948 x 1005 km, 83.0° (Epoch: 22 January)

Event Time Altitude Azimuth Distance (km) Brightness Sun altitude
Rises 00:27:53 0° 359° (N) 3,669 6.9 -20.9°
Reaches altitude 10° 00:30:29 10° 4° (N) 2,711 6.2 -21.5°
Maximum altitude 00:36:32 55° 81° (E) 1,144 4.0 -22.7°
Drops below altitude 10° 00:42:29 10° 158° (SSE) 2,667 6.2 -23.9°
Sets 00:45:01 0° 163° (SSE) 3,605 6.9 -24.4°
